| time (UTC) | temp C | wind direction | speed KPH | gust KPH | rain 1hr cm | rain 24hr cm | rain mn cm | humidity % | barometer mb |
| 20260507201514 | 17 | 240 | 9.7 | 22.5 | 0.00 | 0.53 | 0.03 | 32 | 1005.5 |
| 20260507201014 | 17 | 290 | 4.8 | 20.9 | 0.00 | 0.53 | 0.03 | 33 | 1005.5 |
| 20260507200513 | 17 | 253 | 9.7 | 20.9 | 0.00 | 0.53 | 0.03 | 35 | 1005.7 |
| 20260507200013 | 17 | 254 | 4.8 | 29.0 | 0.00 | 0.53 | 0.03 | 33 | 1005.6 |
| 20260507195516 | 16 | 231 | 14.5 | 29.0 | 0.00 | 0.64 | 0.03 | 36 | 1005.7 |
| 20260507195015 | 16 | 226 | 9.7 | 19.3 | 0.00 | 0.64 | 0.03 | 35 | 1005.7 |
| 20260507194514 | 16 | 231 | 12.9 | 20.9 | 0.00 | 0.64 | 0.03 | 34 | 1005.8 |
| 20260507194012 | 17 | 262 | 9.7 | 22.5 | 0.00 | 0.64 | 0.03 | 35 | 1005.9 |
| 20260507193511 | 17 | 250 | 11.3 | 20.9 | 0.00 | 0.64 | 0.03 | 36 | 1005.8 |
| 20260507193010 | 16 | 168 | 8.0 | 27.4 | 0.00 | 0.64 | 0.03 | 32 | 1005.8 |
| 20260507192509 | 17 | 213 | 12.9 | 27.4 | 0.00 | 0.64 | 0.03 | 33 | 1005.9 |
| 20260507192010 | 17 | 238 | 6.4 | 24.1 | 0.00 | 0.64 | 0.03 | 35 | 1005.9 |
| 20260507191509 | 17 | 252 | 9.7 | 24.1 | 0.00 | 0.64 | 0.03 | 33 | 1006.0 |
| 20260507191007 | 18 | 310 | 6.4 | 19.3 | 0.00 | 0.64 | 0.03 | 39 | 1006.0 |
| 20260507190508 | 17 | 332 | 9.7 | 25.7 | 0.00 | 0.64 | 0.03 | 40 | 1006.2 |
| 20260507190007 | 16 | 260 | 11.3 | 25.7 | 0.00 | 0.64 | 0.03 | 38 | 1006.2 |
| 20260507185506 | 16 | 268 | 3.2 | 20.9 | 0.00 | 0.66 | 0.03 | 42 | 1006.3 |
| 20260507185007 | 16 | 310 | 8.0 | 20.9 | 0.00 | 0.66 | 0.03 | 39 | 1006.4 |
| 20260507184508 | 17 | 291 | 6.4 | 22.5 | 0.00 | 0.66 | 0.03 | 39 | 1006.4 |
| 20260507184007 | 17 | 110 | 3.2 | 22.5 | 0.00 | 0.66 | 0.03 | 39 | 1006.4 |
| 20260507183509 | 17 | 227 | 8.0 | 19.3 | 0.00 | 0.66 | 0.03 | 38 | 1006.3 |
| 20260507183011 | 17 | 241 | 6.4 | 22.5 | 0.00 | 0.66 | 0.03 | 43 | 1006.4 |
| 20260507182506 | 16 | 249 | 6.4 | 22.5 | 0.00 | 0.66 | 0.03 | 39 | 1006.5 |
| 20260507182007 | 17 | 258 | 11.3 | 22.5 | 0.00 | 0.66 | 0.03 | 39 | 1006.4 |
| 20260507181505 | 17 | 282 | 11.3 | 20.9 | 0.00 | 0.66 | 0.03 | 38 | 1006.4 |
| 20260507181009 | 17 | 275 | 9.7 | 17.7 | 0.00 | 0.66 | 0.03 | 41 | 1006.5 |
| 20260507180505 | 18 | 274 | 8.0 | 25.7 | 0.00 | 0.66 | 0.03 | 36 | 1006.5 |
| 20260507180004 | 18 | 285 | 3.2 | 24.1 | 0.00 | 0.66 | 0.03 | 40 | 1006.5 |
| 20260507175503 | 17 | 272 | 11.3 | 24.1 | 0.00 | 0.66 | 0.03 | 39 | 1006.5 |
| 20260507175003 | 17 | 274 | 6.4 | 20.9 | 0.00 | 0.66 | 0.03 | 39 | 1006.4 |
| 20260507174502 | 16 | 270 | 9.7 | 20.9 | 0.00 | 0.66 | 0.03 | 41 | 1006.5 |
| 20260507174003 | 16 | 248 | 11.3 | 29.0 | 0.00 | 0.66 | 0.03 | 40 | 1006.3 |
| 20260507173502 | 16 | 272 | 12.9 | 29.0 | 0.00 | 0.66 | 0.03 | 42 | 1006.5 |
| 20260507173005 | 17 | 239 | 6.4 | 22.5 | 0.00 | 0.66 | 0.03 | 45 | 1006.3 |
| 20260507172502 | 16 | 332 | 9.7 | 25.7 | 0.00 | 0.66 | 0.03 | 41 | 1006.4 |
| 20260507172000 | 16 | 251 | 11.3 | 27.4 | 0.00 | 0.66 | 0.03 | 42 | 1006.5 |
| 20260507171606 | 16 | 239 | 14.5 | 27.4 | 0.00 | 0.66 | 0.03 | 41 | 1006.5 |
| 20260507171100 | 17 | 256 | 14.5 | 27.4 | 0.00 | 0.66 | 0.03 | 40 | 1006.6 |
| 20260507170559 | 16 | 270 | 6.4 | 29.0 | 0.00 | 0.66 | 0.03 | 40 | 1006.7 |
| 20260507170104 | 16 | 253 | 9.7 | 30.6 | 0.00 | 0.66 | 0.03 | 41 | 1006.7 |
| 20260507165557 | 16 | 335 | 11.3 | 30.6 | 0.00 | 0.66 | 0.03 | 41 | 1006.6 |
| 20260507165200 | 16 | 308 | 11.3 | 30.6 | 0.00 | 0.66 | 0.03 | 42 | 1006.9 |
| 20260507164604 | 16 | 283 | 11.3 | 25.7 | 0.00 | 0.66 | 0.03 | 42 | 1006.9 |
| 20260507164057 | 16 | 226 | 6.4 | 24.1 | 0.00 | 0.66 | 0.03 | 49 | 1006.8 |
| 20260507163557 | 16 | 196 | 9.7 | 24.1 | 0.00 | 0.66 | 0.03 | 47 | 1006.9 |
| 20260507163056 | 16 | 272 | 12.9 | 25.7 | 0.00 | 0.66 | 0.03 | 43 | 1006.9 |
| 20260507162554 | 16 | 201 | 12.9 | 25.7 | 0.00 | 0.66 | 0.03 | 47 | 1006.9 |
| 20260507162053 | 16 | 247 | 6.4 | 17.7 | 0.00 | 0.66 | 0.03 | 46 | 1006.9 |
| 20260507161555 | 16 | 226 | 3.2 | 25.7 | 0.00 | 0.66 | 0.03 | 48 | 1006.9 |
| 20260507161052 | 15 | 241 | 11.3 | 17.7 | 0.00 | 0.66 | 0.03 | 49 | 1007.1 |
| 20260507160552 | 15 | 257 | 9.7 | 25.7 | 0.00 | 0.66 | 0.03 | 54 | 1007.1 |
| 20260507160055 | 14 | 253 | 9.7 | 27.4 | 0.00 | 0.66 | 0.03 | 53 | 1007.2 |
| 20260507155550 | 15 | 260 | 14.5 | 27.4 | 0.00 | 0.66 | 0.03 | 54 | 1007.2 |
| 20260507155050 | 15 | 308 | 9.7 | 27.4 | 0.00 | 0.66 | 0.03 | 56 | 1007.2 |
| 20260507154553 | 15 | 228 | 9.7 | 20.9 | 0.00 | 0.66 | 0.03 | 56 | 1007.3 |
| 20260507154048 | 14 | 274 | 1.6 | 19.3 | 0.00 | 0.66 | 0.03 | 62 | 1007.3 |
| 20260507153549 | 14 | 274 | 4.8 | 19.3 | 0.00 | 0.66 | 0.03 | 60 | 1007.5 |
| 20260507153048 | 14 | 271 | 8.0 | 20.9 | 0.00 | 0.66 | 0.03 | 60 | 1007.5 |
| 20260507152548 | 15 | 258 | 4.8 | 20.9 | 0.00 | 0.66 | 0.03 | 61 | 1007.6 |
| 20260507152048 | 14 | 270 | 8.0 | 17.7 | 0.00 | 0.66 | 0.03 | 60 | 1007.6 |
| 20260507151547 | 13 | 239 | 8.0 | 17.7 | 0.00 | 0.66 | 0.03 | 60 | 1007.7 |
| 20260507151046 | 14 | 262 | 4.8 | 19.3 | 0.00 | 0.66 | 0.03 | 60 | 1007.8 |
| 20260507150547 | 13 | 264 | 8.0 | 19.3 | 0.00 | 0.66 | 0.03 | 60 | 1007.7 |
| 20260507150046 | 13 | 256 | 4.8 | 20.9 | 0.00 | 0.66 | 0.03 | 60 | 1007.7 |
| 20260507145545 | 13 | 245 | 6.4 | 20.9 | 0.00 | 0.66 | 0.03 | 59 | 1007.8 |
| 20260507145046 | 13 | 203 | 8.0 | 19.3 | 0.00 | 0.66 | 0.03 | 61 | 1007.9 |
| 20260507144546 | 14 | 225 | 6.4 | 19.3 | 0.00 | 0.66 | 0.03 | 58 | 1007.9 |
| 20260507144048 | 15 | 293 | 6.4 | 24.1 | 0.00 | 0.66 | 0.03 | 58 | 1007.9 |
| 20260507143548 | 14 | 220 | 9.7 | 24.1 | 0.00 | 0.66 | 0.03 | 59 | 1007.8 |
| 20260507143042 | 15 | 274 | 8.0 | 20.9 | 0.00 | 0.66 | 0.03 | 57 | 1007.8 |
| 20260507142541 | 15 | 243 | 11.3 | 20.9 | 0.00 | 0.66 | 0.03 | 57 | 1007.7 |
| 20260507142039 | 15 | 238 | 4.8 | 20.9 | 0.00 | 0.66 | 0.03 | 58 | 1007.7 |
| 20260507141542 | 14 | 235 | 8.0 | 20.9 | 0.00 | 0.66 | 0.03 | 58 | 1007.7 |
| 20260507141037 | 14 | 232 | 6.4 | 16.1 | 0.00 | 0.66 | 0.03 | 56 | 1007.7 |
| 20260507140535 | 14 | 312 | 4.8 | 20.9 | 0.00 | 0.66 | 0.03 | 61 | 1007.7 |
| 20260507140035 | 13 | 234 | 8.0 | 20.9 | 0.00 | 0.66 | 0.03 | 58 | 1007.7 |
| 20260507135534 | 13 | 262 | 11.3 | 19.3 | 0.00 | 0.66 | 0.03 | 58 | 1007.6 |
| 20260507135032 | 14 | 90 | 3.2 | 16.1 | 0.00 | 0.66 | 0.03 | 61 | 1007.5 |
| 20260507134532 | 13 | 312 | 4.8 | 16.1 | 0.00 | 0.66 | 0.03 | 58 | 1007.5 |
| 20260507134030 | 13 | 254 | 3.2 | 19.3 | 0.00 | 0.66 | 0.03 | 61 | 1007.5 |
| 20260507133529 | 13 | 285 | 4.8 | 19.3 | 0.00 | 0.66 | 0.03 | 61 | 1007.7 |
| 20260507133026 | 13 | 267 | 4.8 | 14.5 | 0.00 | 0.66 | 0.03 | 62 | 1007.7 |
| 20260507132526 | 13 | 295 | 4.8 | 17.7 | 0.00 | 0.66 | 0.03 | 64 | 1007.8 |
| 20260507132023 | 12 | 261 | 6.4 | 17.7 | 0.00 | 0.66 | 0.03 | 64 | 1008.0 |
| 20260507131530 | 12 | 266 | 8.0 | 16.1 | 0.00 | 0.66 | 0.03 | 64 | 1008.0 |
| 20260507131021 | 12 | 321 | 4.8 | 14.5 | 0.00 | 0.66 | 0.03 | 66 | 1008.1 |
| 20260507130522 | 12 | 297 | 6.4 | 16.1 | 0.00 | 0.66 | 0.03 | 66 | 1008.1 |
| 20260507130018 | 12 | 288 | 6.4 | 17.7 | 0.00 | 0.66 | 0.03 | 67 | 1008.2 |
| 20260507125517 | 12 | 281 | 6.4 | 19.3 | 0.00 | 0.66 | 0.03 | 66 | 1008.1 |
| 20260507125015 | 12 | 263 | 6.4 | 20.9 | 0.00 | 0.66 | 0.03 | 67 | 1008.2 |
| 20260507124515 | 12 | 301 | 4.8 | 20.9 | 0.00 | 0.66 | 0.03 | 68 | 1008.1 |
| 20260507124012 | 12 | 257 | 8.0 | 22.5 | 0.00 | 0.66 | 0.03 | 69 | 1008.1 |
| 20260507123515 | 11 | 26 | 8.0 | 19.3 | 0.00 | 0.66 | 0.03 | 71 | 1008.1 |
| 20260507123013 | 11 | 321 | 1.6 | 19.3 | 0.00 | 0.66 | 0.03 | 76 | 1008.3 |
| 20260507122511 | 11 | 268 | 11.3 | 19.3 | 0.00 | 0.66 | 0.03 | 74 | 1008.2 |
| 20260507122006 | 11 | 254 | 3.2 | 14.5 | 0.00 | 0.66 | 0.03 | 77 | 1008.2 |
| 20260507121506 | 10 | 4 | 3.2 | 12.9 | 0.00 | 0.66 | 0.03 | 79 | 1008.2 |
| 20260507121006 | 10 | 310 | 3.2 | 14.5 | 0.00 | 0.66 | 0.03 | 78 | 1008.2 |
| 20260507120505 | 10 | 331 | 1.6 | 14.5 | 0.00 | 0.66 | 0.03 | 81 | 1008.3 |
| 20260507120006 | 10 | 258 | 3.2 | 12.9 | 0.00 | 0.66 | 0.03 | 80 | 1008.2 |
| 20260507115504 | 10 | 262 | 6.4 | 16.1 | 0.00 | 0.66 | 0.03 | 80 | 1008.2 |
| 20260507115006 | 10 | 310 | 3.2 | 24.1 | 0.00 | 0.66 | 0.03 | 80 | 1008.1 |
| 20260507114506 | 10 | 293 | 8.0 | 24.1 | 0.00 | 0.66 | 0.03 | 81 | 1008.1 |
| 20260507114002 | 9 | 255 | 3.2 | 17.7 | 0.00 | 0.66 | 0.03 | 82 | 1008.1 |
| 20260507113503 | 9 | 281 | 4.8 | 14.5 | 0.00 | 0.66 | 0.03 | 83 | 1008.0 |
| 20260507113101 | 8 | 311 | 6.4 | 12.9 | 0.00 | 0.66 | 0.03 | 82 | 1007.9 |
| 20260507112603 | 8 | 239 | 3.2 | 8.0 | 0.00 | 0.66 | 0.03 | 82 | 1007.9 |
| 20260507112100 | 8 | 325 | 1.6 | 11.3 | 0.00 | 0.66 | 0.03 | 82 | 1007.8 |
| 20260507111602 | 8 | 271 | 1.6 | 11.3 | 0.00 | 0.66 | 0.03 | 83 | 1007.9 |
| 20260507111100 | 8 | 339 | 0.0 | 12.9 | 0.00 | 0.66 | 0.03 | 82 | 1008.0 |
| 20260507110557 | 8 | 231 | 1.6 | 12.9 | 0.00 | 0.66 | 0.03 | 82 | 1007.9 |
| 20260507110100 | 8 | 257 | 6.4 | 14.5 | 0.00 | 0.66 | 0.03 | 82 | 1008.0 |
| 20260507105555 | 8 | 275 | 3.2 | 12.9 | 0.00 | 0.66 | 0.03 | 82 | 1007.6 |
| 20260507105055 | 8 | 322 | 1.6 | 12.9 | 0.00 | 0.66 | 0.03 | 82 | 1007.7 |
| 20260507104554 | 8 | 247 | 3.2 | 6.4 | 0.00 | 0.66 | 0.03 | 83 | 1007.3 |
| 20260507104054 | 8 | 257 | 1.6 | 9.7 | 0.00 | 0.66 | 0.03 | 83 | 1007.6 |
| 20260507103552 | 8 | 307 | 3.2 | 9.7 | 0.00 | 0.66 | 0.03 | 83 | 1007.3 |
| 20260507103052 | 8 | 312 | 3.2 | 12.9 | 0.00 | 0.66 | 0.03 | 83 | 1007.4 |
| 20260507102552 | 8 | 276 | 1.6 | 16.1 | 0.00 | 0.66 | 0.03 | 84 | 1007.3 |
| 20260507102051 | 8 | 248 | 0.0 | 16.1 | 0.00 | 0.66 | 0.03 | 84 | 1007.3 |
| 20260507101553 | 8 | 310 | 0.0 | 12.9 | 0.00 | 0.66 | 0.03 | 84 | 1007.4 |
| 20260507101050 | 8 | 268 | 3.2 | 9.7 | 0.00 | 0.66 | 0.03 | 84 | 1007.3 |
| 20260507100549 | 8 | 312 | 3.2 | 17.7 | 0.00 | 0.66 | 0.03 | 84 | 1007.3 |
| 20260507100048 | 8 | 334 | 6.4 | 20.9 | 0.00 | 0.66 | 0.03 | 84 | 1007.3 |
| 20260507095548 | 8 | 241 | 4.8 | 14.5 | 0.00 | 0.66 | 0.03 | 85 | 1007.3 |
| 20260507095047 | 8 | 272 | 6.4 | 16.1 | 0.00 | 0.66 | 0.03 | 85 | 1007.6 |
| 20260507094547 | 8 | 237 | 6.4 | 16.1 | 0.00 | 0.66 | 0.03 | 86 | 1007.3 |
| 20260507094046 | 8 | 285 | 4.8 | 16.1 | 0.00 | 0.66 | 0.03 | 86 | 1007.3 |
| 20260507093546 | 8 | 236 | 6.4 | 16.1 | 0.00 | 0.66 | 0.03 | 86 | 1007.6 |
| 20260507093049 | 8 | 316 | 4.8 | 14.5 | 0.00 | 0.66 | 0.03 | 87 | 1007.5 |
| 20260507092545 | 8 | 273 | 3.2 | 11.3 | 0.00 | 0.66 | 0.03 | 87 | 1007.4 |
| 20260507092044 | 8 | 254 | 3.2 | 14.5 | 0.00 | 0.66 | 0.03 | 87 | 1007.4 |
| 20260507091547 | 8 | 240 | 1.6 | 11.3 | 0.00 | 0.66 | 0.03 | 88 | 1007.5 |
| 20260507091044 | 8 | 228 | 6.4 | 12.9 | 0.00 | 0.66 | 0.03 | 88 | 1007.6 |
| 20260507090545 | 8 | 245 | 6.4 | 11.3 | 0.00 | 0.66 | 0.03 | 88 | 1007.6 |
| 20260507090042 | 8 | 279 | 3.2 | 8.0 | 0.00 | 0.66 | 0.03 | 88 | 1007.2 |
| 20260507085542 | 8 | 257 | 4.8 | 11.3 | 0.00 | 0.66 | 0.03 | 87 | 1007.3 |
| 20260507085042 | 8 | 258 | 3.2 | 9.7 | 0.00 | 0.66 | 0.03 | 87 | 1007.3 |
| 20260507084553 | 8 | 266 | 1.6 | 11.3 | 0.00 | 0.66 | 0.03 | 87 | 1007.6 |
| 20260507084043 | 8 | 265 | 4.8 | 14.5 | 0.00 | 0.66 | 0.03 | 87 | 1007.4 |
| 20260507083540 | 8 | 250 | 3.2 | 12.9 | 0.00 | 0.66 | 0.03 | 87 | 1007.2 |
| 20260507083039 | 8 | 241 | 3.2 | 11.3 | 0.00 | 0.66 | 0.03 | 86 | 1007.2 |
| 20260507082541 | 8 | 241 | 3.2 | 12.9 | 0.00 | 0.66 | 0.03 | 86 | 1007.0 |
| 20260507082037 | 8 | 259 | 4.8 | 14.5 | 0.00 | 0.66 | 0.03 | 86 | 1007.1 |
| 20260507081540 | 8 | 257 | 4.8 | 14.5 | 0.00 | 0.66 | 0.03 | 86 | 1007.2 |
| 20260507081039 | 9 | 243 | 4.8 | 14.5 | 0.00 | 0.66 | 0.03 | 85 | 1007.1 |
| 20260507080535 | 9 | 280 | 3.2 | 14.5 | 0.00 | 0.66 | 0.03 | 85 | 1006.9 |
| 20260507080036 | 9 | 250 | 4.8 | 14.5 | 0.00 | 0.66 | 0.03 | 85 | 1007.2 |
| 20260507075534 | 9 | 241 | 3.2 | 14.5 | 0.00 | 0.66 | 0.03 | 85 | 1007.2 |
| 20260507075034 | 9 | 260 | 6.4 | 14.5 | 0.00 | 0.66 | 0.03 | 85 | 1007.3 |
| 20260507074533 | 9 | 217 | 4.8 | 19.3 | 0.00 | 0.66 | 0.03 | 85 | 1007.4 |
| 20260507074032 | 9 | 301 | 8.0 | 19.3 | 0.00 | 0.66 | 0.03 | 85 | 1007.2 |
| 20260507073531 | 9 | 254 | 4.8 | 17.7 | 0.00 | 0.66 | 0.03 | 86 | 1006.9 |
| 20260507073031 | 9 | 264 | 6.4 | 16.1 | 0.00 | 0.66 | 0.03 | 86 | 1006.8 |
| 20260507072531 | 9 | 268 | 4.8 | 16.1 | 0.00 | 0.66 | 0.03 | 86 | 1006.9 |
| 20260507072030 | 10 | 261 | 6.4 | 16.1 | 0.00 | 0.66 | 0.03 | 86 | 1006.9 |
| 20260507071529 | 10 | 224 | 6.4 | 14.5 | 0.00 | 0.66 | 0.03 | 87 | 1006.7 |
| 20260507071029 | 10 | 285 | 4.8 | 14.5 | 0.00 | 0.66 | 0.03 | 87 | 1006.8 |
| 20260507070528 | 10 | 303 | 6.4 | 14.5 | 0.00 | 0.66 | 0.03 | 86 | 1007.0 |
| 20260507070031 | 10 | 289 | 4.8 | 12.9 | 0.00 | 0.66 | 0.03 | 86 | 1007.0 |
| 20260507065528 | 10 | 272 | 3.2 | 16.1 | 0.00 | 0.66 | 0.03 | 86 | 1006.8 |
| 20260507065027 | 10 | 222 | 4.8 | 16.1 | 0.00 | 0.66 | 0.03 | 86 | 1006.6 |
| 20260507064527 | 10 | 264 | 3.2 | 14.5 | 0.00 | 0.66 | 0.03 | 86 | 1006.8 |
| 20260507064026 | 10 | 265 | 6.4 | 14.5 | 0.00 | 0.66 | 0.03 | 86 | 1006.7 |
| 20260507063527 | 10 | 241 | 3.2 | 12.9 | 0.00 | 0.66 | 0.03 | 86 | 1006.9 |
| 20260507063024 | 10 | 248 | 3.2 | 12.9 | 0.00 | 0.66 | 0.03 | 86 | 1006.6 |
| 20260507062524 | 10 | 280 | 6.4 | 12.9 | 0.00 | 0.66 | 0.03 | 86 | 1006.6 |
| 20260507062024 | 10 | 272 | 3.2 | 14.5 | 0.00 | 0.66 | 0.03 | 86 | 1006.7 |
| 20260507061524 | 10 | 243 | 4.8 | 14.5 | 0.00 | 0.66 | 0.03 | 86 | 1006.7 |
| 20260507061022 | 10 | 325 | 4.8 | 16.1 | 0.00 | 0.66 | 0.03 | 87 | 1006.7 |
| 20260507060521 | 10 | 254 | 6.4 | 22.5 | 0.00 | 0.66 | 0.03 | 87 | 1006.7 |
| 20260507060021 | 10 | 277 | 8.0 | 22.5 | 0.00 | 0.66 | 0.03 | 88 | 1006.8 |
| 20260507055521 | 10 | 257 | 4.8 | 16.1 | 0.00 | 0.66 | 0.03 | 88 | 1006.9 |
| 20260507055022 | 10 | 281 | 3.2 | 17.7 | 0.00 | 0.66 | 0.03 | 88 | 1007.0 |
| 20260507054527 | 10 | 300 | 8.0 | 17.7 | 0.00 | 0.66 | 0.03 | 88 | 1007.0 |
| 20260507054019 | 10 | 258 | 4.8 | 17.7 | 0.00 | 0.66 | 0.03 | 88 | 1007.1 |
| 20260507053518 | 10 | 244 | 4.8 | 17.7 | 0.00 | 0.66 | 0.03 | 88 | 1007.2 |
| 20260507053018 | 10 | 253 | 4.8 | 11.3 | 0.00 | 0.66 | 0.03 | 88 | 1007.1 |
| 20260507052517 | 10 | 241 | 3.2 | 9.7 | 0.00 | 0.66 | 0.03 | 89 | 1006.8 |
| 20260507052017 | 10 | 251 | 1.6 | 12.9 | 0.00 | 0.66 | 0.03 | 89 | 1007.1 |
| 20260507051517 | 10 | 222 | 4.8 | 12.9 | 0.00 | 0.66 | 0.03 | 89 | 1007.3 |
| 20260507051016 | 10 | 252 | 1.6 | 11.3 | 0.00 | 0.66 | 0.03 | 89 | 1007.1 |
| 20260507050516 | 10 | 238 | 4.8 | 12.9 | 0.00 | 0.66 | 0.03 | 89 | 1006.9 |
| 20260507050021 | 10 | 245 | 3.2 | 14.5 | 0.03 | 0.66 | 0.03 | 89 | 1006.9 |
| 20260507045516 | 10 | 275 | 4.8 | 20.9 | 0.03 | 0.66 | 0.03 | 89 | 1006.9 |
| 20260507045015 | 10 | 249 | 4.8 | 20.9 | 0.03 | 0.66 | 0.03 | 90 | 1006.9 |
| 20260507044515 | 10 | 287 | 8.0 | 20.9 | 0.03 | 0.66 | 0.03 | 90 | 1006.8 |
| 20260507044013 | 11 | 253 | 4.8 | 14.5 | 0.03 | 0.66 | 0.03 | 90 | 1006.8 |
| 20260507043513 | 11 | 261 | 4.8 | 14.5 | 0.03 | 0.66 | 0.03 | 90 | 1006.8 |
| 20260507043020 | 11 | 291 | 4.8 | 14.5 | 0.03 | 0.66 | 0.03 | 90 | 1006.9 |
| 20260507042510 | 11 | 309 | 3.2 | 20.9 | 0.03 | 0.66 | 0.03 | 90 | 1007.0 |
| 20260507042011 | 11 | 257 | 8.0 | 20.9 | 0.03 | 0.66 | 0.03 | 90 | 1007.1 |
| 20260507041508 | 11 | 256 | 6.4 | 19.3 | 0.03 | 0.66 | 0.03 | 90 | 1007.1 |
| 20260507041007 | 11 | 226 | 4.8 | 19.3 | 0.03 | 0.66 | 0.03 | 90 | 1007.3 |
| 20260507040507 | 12 | 258 | 6.4 | 19.3 | 0.00 | 0.64 | 0.00 | 90 | 1007.2 |
| 20260507040005 | 12 | 303 | 6.4 | 22.5 | 0.00 | 0.64 | 0.00 | 90 | 1007.0 |
| 20260507035503 | 12 | 359 | 6.4 | 22.5 | 0.00 | 0.64 | 0.64 | 91 | 1006.8 |
| 20260507035001 | 13 | 283 | 4.8 | 14.5 | 0.00 | 0.64 | 0.64 | 91 | 1006.6 |
| 20260507034601 | 13 | 347 | 3.2 | 14.5 | 0.00 | 0.64 | 0.64 | 91 | 1006.4 |
| 20260507034059 | 13 | 253 | 3.2 | 17.7 | 0.00 | 0.64 | 0.64 | 91 | 1006.3 |
| 20260507033559 | 13 | 231 | 6.4 | 20.9 | 0.00 | 0.64 | 0.64 | 92 | 1006.1 |
| 20260507033102 | 13 | 285 | 6.4 | 20.9 | 0.00 | 0.64 | 0.64 | 91 | 1006.0 |
| 20260507032556 | 13 | 359 | 4.8 | 17.7 | 0.00 | 0.64 | 0.64 | 92 | 1006.0 |
| 20260507032055 | 13 | 359 | 6.4 | 30.6 | 0.00 | 0.64 | 0.64 | 92 | 1005.8 |
| 20260507031555 | 13 | 264 | 11.3 | 30.6 | 0.00 | 0.64 | 0.64 | 92 | 1005.9 |
| 20260507031053 | 14 | 241 | 11.3 | 22.5 | 0.00 | 0.64 | 0.64 | 92 | 1005.9 |
| 20260507030557 | 14 | 253 | 9.7 | 20.9 | 0.00 | 0.64 | 0.64 | 92 | 1005.8 |
| 20260507030052 | 15 | 241 | 4.8 | 16.1 | 0.00 | 0.64 | 0.64 | 92 | 1005.8 |
| 20260507025551 | 14 | 237 | 4.8 | 16.1 | 0.00 | 0.64 | 0.64 | 92 | 1005.6 |
| 20260507025051 | 14 | 225 | 4.8 | 14.5 | 0.00 | 0.64 | 0.64 | 92 | 1005.6 |
| 20260507024604 | 14 | 225 | 4.8 | 14.5 | 0.00 | 0.64 | 0.64 | 92 | 1005.6 |
| 20260507024053 | 14 | 195 | 6.4 | 14.5 | 0.00 | 0.64 | 0.64 | 92 | 1005.5 |
| 20260507023554 | 14 | 235 | 1.6 | 14.5 | 0.00 | 0.64 | 0.64 | 92 | 1005.5 |
| 20260507023052 | 15 | 218 | 4.8 | 12.9 | 0.00 | 0.64 | 0.64 | 92 | 1005.5 |
| 20260507022555 | 14 | 233 | 4.8 | 12.9 | 0.00 | 0.64 | 0.64 | 92 | 1005.5 |
| 20260507022049 | 14 | 214 | 3.2 | 11.3 | 0.00 | 0.64 | 0.64 | 92 | 1005.3 |
| 20260507021549 | 14 | 237 | 6.4 | 17.7 | 0.00 | 0.64 | 0.64 | 92 | 1005.3 |
| 20260507021048 | 14 | 226 | 4.8 | 17.7 | 0.00 | 0.64 | 0.64 | 92 | 1005.3 |
| 20260507020548 | 14 | 224 | 6.4 | 14.5 | 0.00 | 0.64 | 0.64 | 92 | 1005.3 |
| 20260507020106 | 14 | 176 | 3.2 | 16.1 | 0.00 | 0.64 | 0.64 | 92 | 1005.2 |
| 20260507015547 | 14 | 164 | 1.6 | 16.1 | 0.00 | 0.64 | 0.64 | 92 | 1005.4 |
| 20260507015047 | 14 | 200 | 4.8 | 16.1 | 0.00 | 0.64 | 0.64 | 92 | 1005.4 |
| 20260507014552 | 14 | 196 | 3.2 | 14.5 | 0.00 | 0.64 | 0.64 | 92 | 1005.5 |
| 20260507014046 | 14 | 226 | 4.8 | 12.9 | 0.00 | 0.64 | 0.64 | 92 | 1005.5 |
| 20260507013546 | 14 | 227 | 4.8 | 12.9 | 0.00 | 0.64 | 0.64 | 92 | 1005.4 |
| 20260507013052 | 14 | 188 | 4.8 | 22.5 | 0.00 | 0.64 | 0.64 | 92 | 1005.5 |
| 20260507012542 | 15 | 239 | 4.8 | 22.5 | 0.00 | 0.64 | 0.64 | 92 | 1005.6 |
| 20260507012042 | 15 | 149 | 6.4 | 12.9 | 0.00 | 0.64 | 0.64 | 92 | 1005.5 |
| 20260507011542 | 15 | 193 | 4.8 | 16.1 | 0.00 | 0.64 | 0.64 | 92 | 1005.6 |
| 20260507011042 | 15 | 205 | 4.8 | 16.1 | 0.00 | 0.64 | 0.64 | 92 | 1005.7 |
| 20260507010541 | 15 | 234 | 1.6 | 16.1 | 0.00 | 0.64 | 0.64 | 92 | 1005.6 |
| 20260507010042 | 15 | 188 | 1.6 | 11.3 | 0.00 | 0.64 | 0.64 | 92 | 1005.6 |
| 20260507005541 | 15 | 216 | 4.8 | 17.7 | 0.00 | 0.64 | 0.64 | 92 | 1005.7 |
| 20260507005043 | 15 | 159 | 6.4 | 17.7 | 0.00 | 0.64 | 0.64 | 92 | 1005.6 |
| 20260507004551 | 15 | 172 | 4.8 | 22.5 | 0.00 | 0.64 | 0.64 | 92 | 1005.6 |
| 20260507004041 | 15 | 162 | 6.4 | 14.5 | 0.00 | 0.64 | 0.64 | 92 | 1005.5 |
| 20260507003540 | 15 | 149 | 3.2 | 19.3 | 0.00 | 0.64 | 0.64 | 92 | 1005.3 |
| 20260507003044 | 15 | 199 | 6.4 | 19.3 | 0.00 | 0.64 | 0.64 | 92 | 1005.5 |
| 20260507002538 | 15 | 215 | 6.4 | 16.1 | 0.00 | 0.64 | 0.64 | 92 | 1005.5 |
| 20260507002037 | 15 | 187 | 3.2 | 12.9 | 0.03 | 0.64 | 0.64 | 92 | 1005.6 |
| 20260507001544 | 15 | 213 | 3.2 | 17.7 | 0.08 | 0.64 | 0.64 | 92 | 1005.5 |
| 20260507001036 | 15 | 233 | 6.4 | 17.7 | 0.13 | 0.64 | 0.64 | 92 | 1005.4 |
| 20260507000536 | 15 | 222 | 4.8 | 16.1 | 0.15 | 0.64 | 0.64 | 92 | 1005.4 |
| 20260507000036 | 15 | 167 | 3.2 | 16.1 | 0.15 | 0.64 | 0.64 | 91 | 1005.4 |
| 20260506235535 | 15 | 234 | 6.4 | 14.5 | 0.15 | 0.64 | 0.64 | 91 | 1005.2 |
| 20260506235035 | 15 | 172 | 3.2 | 14.5 | 0.18 | 0.64 | 0.64 | 91 | 1005.2 |
| 20260506234538 | 15 | 161 | 6.4 | 16.1 | 0.20 | 0.64 | 0.64 | 91 | 1005.2 |
| 20260506234034 | 15 | 218 | 6.4 | 16.1 | 0.23 | 0.64 | 0.64 | 91 | 1005.1 |
| 20260506233534 | 15 | 135 | 4.8 | 14.5 | 0.23 | 0.64 | 0.64 | 91 | 1005.2 |
| 20260506233034 | 15 | 206 | 1.6 | 22.5 | 0.25 | 0.64 | 0.64 | 91 | 1005.2 |
| 20260506232532 | 15 | 170 | 6.4 | 24.1 | 0.25 | 0.64 | 0.64 | 91 | 1005.3 |
| 20260506232033 | 15 | 242 | 4.8 | 17.7 | 0.23 | 0.61 | 0.61 | 91 | 1005.4 |
| 20260506231531 | 15 | 201 | 1.6 | 17.7 | 0.20 | 0.56 | 0.56 | 91 | 1005.4 |
| 20260506231031 | 15 | 197 | 1.6 | 17.7 | 0.15 | 0.51 | 0.51 | 91 | 1005.4 |
| 20260506230529 | 15 | 242 | 4.8 | 16.1 | 0.15 | 0.48 | 0.48 | 91 | 1005.6 |
| 20260506230029 | 15 | 193 | 4.8 | 16.1 | 0.15 | 0.48 | 0.48 | 91 | 1005.7 |
| 20260506225529 | 15 | 199 | 3.2 | 16.1 | 0.15 | 0.46 | 0.46 | 91 | 1005.6 |
| 20260506225029 | 15 | 183 | 4.8 | 16.1 | 0.18 | 0.46 | 0.46 | 91 | 1005.6 |
| 20260506224533 | 15 | 206 | 3.2 | 11.3 | 0.13 | 0.41 | 0.41 | 91 | 1005.5 |
| 20260506224029 | 15 | 175 | 4.8 | 20.9 | 0.13 | 0.41 | 0.41 | 90 | 1005.5 |
| 20260506223527 | 15 | 179 | 6.4 | 19.3 | 0.13 | 0.41 | 0.41 | 90 | 1005.6 |
| 20260506223036 | 15 | 187 | 4.8 | 19.3 | 0.10 | 0.38 | 0.38 | 90 | 1005.6 |
| 20260506222527 | 15 | 161 | 4.8 | 14.5 | 0.10 | 0.38 | 0.38 | 90 | 1005.7 |
| 20260506222029 | 15 | 183 | 3.2 | 14.5 | 0.10 | 0.38 | 0.38 | 90 | 1005.6 |
| 20260506221525 | 15 | 198 | 4.8 | 9.7 | 0.08 | 0.36 | 0.36 | 90 | 1005.8 |
| 20260506221024 | 15 | 114 | 1.6 | 9.7 | 0.08 | 0.36 | 0.36 | 90 | 1005.7 |
| 20260506220524 | 15 | 201 | 0.0 | 8.0 | 0.08 | 0.33 | 0.33 | 90 | 1005.8 |
| 20260506220025 | 15 | 158 | 1.6 | 11.3 | 0.05 | 0.30 | 0.30 | 90 | 1005.9 |
| 20260506215523 | 15 | 186 | 1.6 | 11.3 | 0.03 | 0.28 | 0.28 | 90 | 1006.1 |
| 20260506215029 | 15 | 180 | 1.6 | 12.9 | 0.05 | 0.28 | 0.28 | 90 | 1005.9 |
| 20260506214536 | 15 | 208 | 3.2 | 12.9 | 0.05 | 0.28 | 0.28 | 90 | 1005.8 |
| 20260506214023 | 15 | 189 | 4.8 | 19.3 | 0.05 | 0.28 | 0.28 | 90 | 1005.9 |
| 20260506213526 | 15 | 234 | 6.4 | 19.3 | 0.05 | 0.28 | 0.28 | 90 | 1006.0 |
| 20260506213023 | 15 | 183 | 3.2 | 14.5 | 0.08 | 0.28 | 0.28 | 89 | 1006.0 |
| 20260506212521 | 15 | 287 | 3.2 | 12.9 | 0.08 | 0.28 | 0.28 | 89 | 1006.2 |
| 20260506212020 | 15 | 191 | 3.2 | 17.7 | 0.10 | 0.28 | 0.28 | 89 | 1006.2 |
| 20260506211520 | 15 | 182 | 8.0 | 17.7 | 0.10 | 0.28 | 0.28 | 89 | 1006.2 |
| 20260506211019 | 15 | 147 | 4.8 | 14.5 | 0.13 | 0.28 | 0.28 | 89 | 1006.3 |
| 20260506210518 | 15 | 118 | 3.2 | 12.9 | 0.10 | 0.25 | 0.25 | 89 | 1006.4 |
| 20260506210021 | 15 | 210 | 4.8 | 12.9 | 0.13 | 0.25 | 0.25 | 89 | 1006.4 |
| 20260506205518 | 15 | 164 | 4.8 | 14.5 | 0.13 | 0.25 | 0.25 | 89 | 1006.5 |
| 20260506205018 | 16 | 191 | 4.8 | 22.5 | 0.10 | 0.23 | 0.23 | 89 | 1006.5 |
| 20260506204517 | 16 | 220 | 8.0 | 24.1 | 0.10 | 0.23 | 0.23 | 88 | 1006.6 |
| 20260506204016 | 16 | 237 | 8.0 | 24.1 | 0.10 | 0.23 | 0.23 | 88 | 1006.4 |
| 20260506203516 | 16 | 245 | 3.2 | 24.1 | 0.08 | 0.20 | 0.20 | 88 | 1006.5 |
| 20260506203019 | 16 | 258 | 3.2 | 17.7 | 0.10 | 0.20 | 0.20 | 87 | 1006.5 |
| 20260506202515 | 16 | 140 | 1.6 | 12.9 | 0.10 | 0.20 | 0.20 | 88 | 1006.4 |
| 20260506202014 | 16 | 175 | 3.2 | 14.5 | 0.10 | 0.18 | 0.18 | 87 | 1006.4 |